Weather Service Report


208 
ASUS43 KDTX 091910
RWRMI 
MICHIGAN HOURLY REGIONAL WEATHER ROUNDUP
NATIONAL WEATHER SERVICE DETROIT/PONTIAC MI
ISSUED BY NATIONAL WEATHER SERVICE GRAND RAPIDS MI
200 PM EST FRI DEC 09 2016

NOTE: "FAIR" INDICATES FEW OR NO CLOUDS BELOW 12,000 FEET WITH NO
SIGNIFICANT WEATHER AND/OR OBSTRUCTION TO VISIBILITY.

MIZ047>049-052>055-059>063-066>070-074>076-081>083-092000-
SOUTHEAST LOWER MICHIGAN
  
CITY           SKY/WX    TMP DP  RH WIND       PRES   REMARKS
ADRIAN         CLOUDY    29  24  82 NW9       30.38F WCI  20          
ALMA           CLOUDY    29  11  48 W10       30.36S WCI  19          
ANN ARBOR      CLOUDY    29  19  66 W13       30.36F WCI  19          
BAD AXE        CLOUDY    28  15  57 W9        30.32S WCI  19          
DETROIT CITY   CLOUDY    32  13  45 W14       30.35F WCI  22          
DETROIT        CLOUDY    31  17  56 W13       30.37F WCI  21          
FLINT          CLOUDY    30  13  49 W18       30.34F WCI  18          
GROSSE ILE     CLOUDY    32  17  54 NW13G18   30.36S WCI  22          
HILLSDALE      LGT SNOW  28  23  80 W13       30.35F WCI  18          
HOWELL         CLOUDY    30  15  54 W10       30.35S WCI  21          

CITY           SKY/WX    TMP DP  RH WIND       PRES   REMARKS
JACKSON        LGT SNOW  27  21  78 W9        30.37S WCI  18          
LANSING        CLOUDY    28  17  63 W12       30.38S WCI  18          
MASON          CLOUDY    28  19  69 W12       30.37S WCI  17          
MONROE         LGT SNOW  31  24  77 NW10      30.38S WCI  22          
MT. CLEMENS    PTSUNNY   33  14  46 W16       30.32S WCI  22          
PONTIAC        PTSUNNY   31  14  49 W14G24    30.32F WCI  21          
PORT HOPE        N/A     29  16  58 NW14      30.29F WCI  18          
PORT HURON     CLOUDY    28  21  74 W7        30.34R WCI  21          
TRI CITIES     CLOUDY    29  19  66 W9        30.35S WCI  20          
YPSILANTI      CLOUDY    32  17  54 W16       30.37F WCI  21          
$$
MIZ043>046-050>051-056>058-064>065-071>073-077>080-092000-
SOUTHWEST LOWER MICHIGAN
  
CITY           SKY/WX    TMP DP  RH WIND       PRES   REMARKS
BATTLE CREEK   CLOUDY    28  21  75 NW12      30.39F WCI  18          
BENTON HARBOR  CLOUDY    28  16  60 W14       30.45F WCI  17          
BIG RAPIDS     CLOUDY    27  15  60 W13G18    30.33F WCI  16          
COLDWATER      CLOUDY    29  23  79 W15       30.39S WCI  17          
HOLLAND        CLOUDY    28  16  60 NW12      30.42F WCI  18          
GRAND RAPIDS   LGT SNOW  26  20  77 NW12      30.39F WCI  16          
KALAMAZOO      LGT SNOW  27  20  75 W9        30.41S WCI  18          
MARSHALL       CLOUDY    28  21  75 W10       30.37F WCI  19          
MOUNT PLEASANT CLOUDY    29  15  55 W12       30.34S WCI  19          
MUSKEGON       LGT SNOW  27  20  75 NW14G20   30.41S WCI  16          
STURGIS        FLURRIES  28  21  74 NW13G22   30.40S WCI  18          
$$
MIZ016>042-092000-
NORTHERN LOWER MICHIGAN
  
CITY           SKY/WX    TMP DP  RH WIND       PRES   REMARKS
ALPENA         PTSUNNY   26  14  60 NW8       30.31F WCI  18          
BEAVER ISLAND  CLOUDY    27  19  71 NW6       30.32F WCI  20          
BELLAIRE       SNOW      26  22  86 N5        30.32S VSB 1/2 WCI  20  
CADILLAC       LGT SNOW  26  20  78 W14       30.28S WCI  14          
CHARLEVOIX     CLOUDY    28  18  67 N8        30.34S WCI  20          
GAYLORD        FLURRIES  24  16  71 CALM      30.27S                  
HOUGHTON LAKE  LGT SNOW  23  21  92 NW3       30.29S FOG              
MANISTEE       FLURRIES  26  18  71 W15       30.36F WCI  14          
OSCODA         CLOUDY    29  14  52 MISG      30.31S                  
PELLSTON       CLOUDY    26  13  57 NW12      30.32S WCI  16          
TRAVERSE CITY  LGT SNOW  27  22  81 W8        30.32S WCI  19          
LUDINGTON      FLURRIES  26  17  70 NW9       30.38F WCI  16          
$$
MIZ007>008-015-092000-
EASTERN UPPER MICHIGAN
  
CITY           SKY/WX    TMP DP  RH WIND       PRES   REMARKS
KINROSS        CLOUDY    23  12  63 CALM      30.32S                  
MACKINAC ISLAN MOSUNNY   23  17  79 N3        30.31S                  
NEWBERRY       CLOUDY    21  15  76 NW6       30.31S WCI  14          
S. S. MARIE    CLOUDY    21   8  57 N6        30.31S WCI  13          
$$
MIZ004>006-011>014-085-092000-
CENTRAL UPPER MICHIGAN
  
CITY           SKY/WX    TMP DP  RH WIND       PRES   REMARKS
MANISTIQUE     LGT SNOW  23  22  95 W7        30.33F WCI  15          
ESCANABA       CLOUDY    26  12  55 NW13      30.36F WCI  15          
MENOMINEE      PTSUNNY   25   9  50 N7        30.39F WCI  17          
SAWYER-GWINN   PTSUNNY   19  12  73 W10G18    30.32F WCI   8          
$$
MIZ001>003-009>011-084-092000-
WESTERN UPPER MICHIGAN
  
CITY           SKY/WX    TMP DP  RH WIND       PRES   REMARKS
IRON MOUNTAIN  CLOUDY    22   6  50 NW15G24   30.33F WCI   9          
HOUGHTON       FLURRIES  18   8  65 NW13      30.34F WCI   5          
COPPER HARBOR    N/A     22  16  78 N12       30.36F WCI  10          
IRONWOOD       CLOUDY    15   7  70 SW12      30.41F WCI   2          
$$

ABBREVIATIONS USED IN REMARKS
   TC - TEMPERATURE IN CELSIUS
  WCI - WIND CHILL INDEX
   HX - HEAT INDEX
  VSB - VISIBILITY

  


234 
ASUS43 KDTX 091910
RWRMI 
MICHIGAN HOURLY REGIONAL WEATHER ROUNDUP
NATIONAL WEATHER SERVICE DETROIT/PONTIAC MI
200 PM EST FRI DEC 09 2016

NOTE: "FAIR" INDICATES FEW OR NO CLOUDS BELOW 12,000 FEET WITH NO
SIGNIFICANT WEATHER AND/OR OBSTRUCTION TO VISIBILITY.

MIZ047>049-052>055-059>063-066>070-074>076-081>083-092000-
SOUTHEAST LOWER MICHIGAN
  
CITY           SKY/WX    TMP DP  RH WIND       PRES   REMARKS
ADRIAN         CLOUDY    29  24  82 NW9       30.38F WCI  20          
ALMA           CLOUDY    29  11  48 W10       30.36S WCI  19          
ANN ARBOR      CLOUDY    29  19  66 W13       30.36F WCI  19          
BAD AXE        CLOUDY    28  15  57 W9        30.32S WCI  19          
CARO           CLOUDY    28  20  71 W6        30.33S WCI  22          
DETROIT CITY   CLOUDY    32  13  45 W14       30.35F WCI  22          
DETROIT        CLOUDY    31  17  56 W13       30.37F WCI  21          
FLINT          CLOUDY    30  13  49 W18       30.34F WCI  18          
GROSSE ILE     CLOUDY    32  17  54 NW13G18   30.36S WCI  22          
HILLSDALE      LGT SNOW  28  23  80 W13       30.35F WCI  18          
HOWELL         CLOUDY    30  15  54 W10       30.35S WCI  21          

CITY           SKY/WX    TMP DP  RH WIND       PRES   REMARKS
JACKSON        LGT SNOW  27  21  78 W9        30.37S WCI  18          
LAMBERTVILLE   LGT SNOW  31  24  76 W9        30.40F WCI  23          
LANSING        CLOUDY    28  17  63 W12       30.38S WCI  18          
LAPEER         NOT AVBL                                               
MASON          CLOUDY    28  19  69 W12       30.37S WCI  17          
MONROE         LGT SNOW  31  24  77 NW10      30.38S WCI  22          
MT. CLEMENS    PTSUNNY   33  14  46 W16       30.32S WCI  22          
PONTIAC        PTSUNNY   31  14  49 W14G24    30.32F WCI  21          
PORT HOPE        N/A     29  16  58 NW14      30.29F WCI  18          
PORT HURON     CLOUDY    28  21  74 W7        30.34R WCI  21          
TRI CITIES     CLOUDY    29  19  66 W9        30.35S WCI  20          
MIDLAND        CLOUDY    30  17  56 W8        30.34S WCI  23          
TROY           CLOUDY    34  10  36 W15G21    30.35F WCI  24          
SAGINAW HB     CLOUDY    30  19  64 W13G20    30.34S WCI  20          
$$
MIZ043>046-050>051-056>058-064>065-071>073-077>080-092000-
SOUTHWEST LOWER MICHIGAN
  
CITY           SKY/WX    TMP DP  RH WIND       PRES   REMARKS
BATTLE CREEK   CLOUDY    28  21  75 NW12      30.39F WCI  18          
BENTON HARBOR  CLOUDY    28  16  60 W14       30.45F WCI  17          
BIG RAPIDS     CLOUDY    27  15  60 W13G18    30.33F WCI  16          
COLDWATER      CLOUDY    29  23  79 W15       30.39S WCI  17          
FREMONT        CLOUDY    26  14  61 NW12      30.38F WCI  15          
HOLLAND        CLOUDY    28  16  60 NW12      30.42F WCI  18          
GRAND RAPIDS   LGT SNOW  26  20  77 NW12      30.39F WCI  16          
IONIA          CLOUDY    27  19  72 NW3       30.37S                  
KALAMAZOO      LGT SNOW  27  20  75 W9        30.41S WCI  18          
LUDINGTON      FLURRIES  26  17  70 NW9       30.38F WCI  16          
MARSHALL       CLOUDY    28  21  75 W10       30.37F WCI  19          
MOUNT PLEASANT CLOUDY    29  15  55 W12       30.34S WCI  19          
MUSKEGON       LGT SNOW  27  20  75 NW14G20   30.41S WCI  16          
SOUTH HAVEN    CLOUDY    28  16  60 NW13G20   30.43S WCI  18          
$$
MIZ016>042-092000-
NORTHERN LOWER MICHIGAN
  
CITY           SKY/WX    TMP DP  RH WIND       PRES   REMARKS
ALPENA         PTSUNNY   26  14  60 NW8       30.31F WCI  18          
BEAVER ISLAND  CLOUDY    27  19  71 NW6       30.32F WCI  20          
BELLAIRE       SNOW      26  22  86 N5        30.32S VSB 1/2 WCI  20  
CADILLAC       LGT SNOW  26  20  78 W14       30.28S WCI  14          
CHARLEVOIX     CLOUDY    28  18  67 N8        30.34S WCI  20          
FRANKFORT      FLURRIES  28  21  76 NW13G21   30.35F WCI  17          
GAYLORD        FLURRIES  24  16  71 CALM      30.27S                  
GRAYLING       CLOUDY    26  19  77 W7        30.29S WCI  18          
HARBOR SPRINGS LGT SNOW  25  17  73 N8        30.31S WCI  16          
HOUGHTON LAKE  LGT SNOW  23  21  92 NW3       30.29S FOG              
MANISTEE       FLURRIES  26  18  71 W15       30.36F WCI  14          
OSCODA         CLOUDY    29  14  52 MISG      30.31S                  
PELLSTON       CLOUDY    26  13  57 NW12      30.32S WCI  16          
ROGERS CITY    CLOUDY    25  14  64 NW7       30.32F WCI  17          
TRAVERSE CITY  LGT SNOW  27  22  81 W8        30.32S WCI  19          
$$
MIZ007>008-015-092000-
EASTERN UPPER MICHIGAN
  
CITY           SKY/WX    TMP DP  RH WIND       PRES   REMARKS
KINROSS        CLOUDY    23  12  63 CALM      30.32S                  
MACKINAC ISLAN MOSUNNY   23  17  79 N3        30.31S                  
NEWBERRY       CLOUDY    21  15  76 NW6       30.31S WCI  14          
S. S. MARIE    CLOUDY    21   8  57 N6        30.31S WCI  13          
MUNISING         N/A     23  21  92 W8        30.34F WCI  14          
$$
MIZ004>006-011>014-085-092000-
CENTRAL UPPER MICHIGAN
  
CITY           SKY/WX    TMP DP  RH WIND       PRES   REMARKS
MANISTIQUE     LGT SNOW  23  22  95 W7        30.33F WCI  15          
ESCANABA       CLOUDY    26  12  55 NW13      30.36F WCI  15          
MENOMINEE      PTSUNNY   25   9  50 N7        30.39F WCI  17          
SAWYER-GWINN   PTSUNNY   19  12  73 W10G18    30.32F WCI   8          
$$
MIZ001>003-009>011-084-092000-
WESTERN UPPER MICHIGAN
  
CITY           SKY/WX    TMP DP  RH WIND       PRES   REMARKS
IRON MOUNTAIN  CLOUDY    22   6  50 NW15G24   30.33F WCI   9          
HOUGHTON       FLURRIES  18   8  65 NW13      30.34F WCI   5          
COPPER HARBOR    N/A     22  16  78 N12       30.36F WCI  10          
IRONWOOD       CLOUDY    15   7  70 SW12      30.41F WCI   2          
$$

ABBREVIATIONS USED IN REMARKS
   TC - TEMPERATURE IN CELSIUS
  WCI - WIND CHILL INDEX
   HX - HEAT INDEX
  VSB - VISIBILITY

  

Return to Home page


Western Regional Climate Center, wrcc@dri.edu